Wind_Speed
18 17 16 19 23 26 25 28 31 35 36 38 39 38 35 27 25 23 36 40 38 51 42 38 32 36 30 30 29 28 29 26 28 28 27 25 21 22 23 23 28 27 26
20 19 20 20 20 19 22 25 29 34 36 37 39 39 38 36 30 24 22 36 42 48 33 31 30 18 30 38 34 33 33 33 29 30 25 20 21 21 23 25 24 26 27
21 24 26 25 26 28 31 32 33 37 39 38 36 39 43 43 42 40 38 36 25 43 55 43 28 17 26 32 42 41 35 29 25 21 22 24 21 21 15 17 20 20 21
29 28 27 28 30 32 34 35 36 36 39 41 39 38 40 43 43 41 43 52 47 42 43 43 33 31 43 36 37 36 28 26 22 20 21 12 14 12 13 21 22 17 17
23 25 28 31 33 36 37 37 37 37 36 38 41 41 39 37 38 41 49 52 52 44 45 50 37 40 39 34 33 32 27 22 20 17 14 10 9 11 12 14 17 19 19
24 27 31 32 28 30 32 32 33 31 31 34 35 39 39 37 36 36 39 39 44 47 48 49 41 33 32 27 24 20 19 18 15 15 13 14 15 17 18 21 23 25 26
33 36 37 39 36 36 34 32 31 29 29 32 36 39 37 34 32 29 23 32 6 9 43 42 36 31 28 24 21 18 16 15 12 10 8 8 8 6 9 11 13 18 21
33 31 31 36 38 37 37 35 37 37 39 41 37 37 33 32 28 23 18 25 9 10 11 24 22 23 20 21 19 17 13 9 6 4 3 2 4 6 12 17 21 23 25
38 38 35 30 33 35 40 45 47 44 45 39 38 41 26 31 25 22 19 11 14 16 11 11 16 21 20 18 17 15 12 8 5 2 1 4 7 12 17 19 18 17 21
48 46 46 50 52 51 48 46 43 41 39 38 36 37 25 26 27 27 29 15 17 17 16 14 19 22 24 18 17 15 12 8 3 3 5 8 12 16 17 13 13 17 19
51 46 41 39 38 36 36 40 38 35 35 37 37 33 32 27 22 21 26 25 19 21 21 19 19 20 17 14 13 13 8 3 6 7 10 14 17 19 18 10 12 15 18
38 36 34 34 34 35 39 39 31 32 32 33 31 30 33 28 22 20 34 29 25 22 26 24 20 18 18 17 18 11 7 7 7 10 13 18 22 21 13 14 16 19 23
37 38 35 33 35 30 33 27 26 27 29 31 31 29 29 29 25 18 19 25 27 27 26 22 23 20 20 20 18 11 11 11 10 13 17 22 24 16 15 19 23 26 20
35 34 33 34 28 30 28 27 28 29 26 28 28 21 25 23 19 23 17 22 25 28 31 29 24 22 25 25 19 17 17 16 16 17 20 24 16 15 18 18 27 20 16
32 31 29 29 27 27 26 25 22 24 21 24 24 14 15 15 17 23 19 25 27 26 34 33 30 20 19 22 24 23 22 20 19 19 19 16 19 19 19 18 29 19 11
32 32 29 23 24 24 23 24 24 25 22 22 26 18 16 9 7 9 19 14 23 28 40 38 36 30 24 19 16 17 19 18 18 19 15 18 23 24 21 21 26 14 10
29 29 28 25 23 24 23 21 19 20 23 23 26 27 26 27 16 6 9 21 23 19 38 42 38 37 32 25 26 22 20 20 16 14 17 21 20 16 21 22 19 8 6
25 25 25 27 24 24 21 21 21 25 20 19 21 28 29 30 26 18 9 23 30 25 22 28 32 33 30 27 26 22 19 16 18 19 19 22 23 19 20 22 14 10 8
22 21 19 18 22 19 20 21 22 22 21 19 15 12 17 30 32 26 20 10 22 23 25 21 15 16 19 21 21 20 21 22 22 22 19 19 17 18 21 21 16 13 12
20 19 18 15 15 18 17 20 19 18 16 17 15 16 10 19 29 32 27 16 16 24 28 24 16 15 19 19 20 22 21 21 17 15 20 23 21 21 20 18 15 13 16
18 19 19 18 13 13 15 17 19 18 21 15 13 16 13 12 17 22 30 24 21 22 30 21 25 25 25 24 22 22 25 21 16 18 16 15 17 20 21 12 12 13 11
17 20 24 24 17 9 8 13 14 15 17 23 17 13 15 18 15 15 22 27 25 25 25 20 25 25 21 18 10 6 12 14 16 16 15 16 20 20 18 16 18 15 19
19 18 18 21 12 4 1 5 9 11 13 16 22 14 12 13 18 17 13 16 29 28 23 21 25 26 21 15 15 12 13 15 18 18 18 20 19 21 16 16 15 8 28
16 17 18 26 15 10 6 5 6 9 12 11 14 21 16 12 16 21 22 18 20 30 33 26 27 29 28 25 22 19 19 16 14 16 21 19 16 13 13 12 12 40 38
14 16 16 16 19 18 13 10 8 8 11 13 11 15 19 16 14 14 21 24 23 25 26 35 34 32 30 30 29 28 27 27 21 20 22 19 16 10 7 8 15 21 30
14 14 14 13 13 12 12 11 10 8 9 7 8 14 15 22 17 16 17 24 28 30 28 30 32 34 35 34 34 31 28 26 25 25 26 21 15 10 9 9 25 27 29
Wind_Direction
264 258 261 268 276 287 297 298 298 296 297 297 294 297 299 307 288 281 272 269 259 238 246 242 238 232 234 269 253 255 247 239 244 251 259 268 261 266 274 279 280 284 287
255 251 253 263 274 278 281 296 305 304 303 302 302 301 299 298 294 272 294 265 258 249 232 243 268 283 252 248 240 247 242 238 245 253 260 265 268 264 274 282 289 287 287
265 269 272 268 266 269 272 277 287 292 298 302 306 303 299 299 297 290 276 272 263 274 261 259 239 234 245 208 234 239 237 234 236 244 250 257 263 255 263 297 295 293 298
280 280 268 260 265 270 275 281 293 296 293 296 303 308 306 298 296 295 285 280 270 279 253 241 228 232 226 224 228 235 234 231 236 244 247 252 254 229 257 282 284 286 292
278 275 272 274 274 276 276 281 287 288 295 294 299 302 308 295 296 295 300 292 273 261 249 237 205 204 209 221 225 234 228 219 213 205 208 206 208 226 218 250 281 293 290
286 279 276 274 273 276 279 280 283 286 288 293 294 297 300 300 294 293 311 309 273 206 208 205 202 196 196 201 209 208 208 204 203 202 210 230 236 252 264 272 282 284 292
293 287 285 283 278 274 274 272 275 274 280 288 290 286 299 300 297 275 298 325 315 352 195 177 178 188 194 187 185 194 206 213 219 221 223 236 248 279 290 304 302 287 286
288 285 283 277 273 270 269 268 270 276 288 286 278 286 297 295 297 274 265 292 277 177 183 180 172 171 177 185 195 206 204 194 181 174 206 262 322 330 322 316 305 297 288
286 283 278 282 280 276 274 274 276 278 283 271 272 273 288 288 287 245 226 293 224 184 196 193 173 172 172 167 174 176 163 154 139 165 360 359 336 330 323 301 295 298 301
296 294 289 285 279 274 275 276 272 271 273 264 267 271 271 287 274 255 242 256 242 194 192 197 182 178 179 175 173 175 172 175 189 261 301 315 312 315 314 297 306 303 305
293 291 288 282 279 276 272 273 268 265 264 266 269 269 265 270 278 242 230 253 236 207 195 191 185 184 176 182 199 206 203 217 263 287 301 308 314 318 321 319 315 305 298
303 297 293 291 280 275 277 280 270 252 253 264 266 269 266 268 274 260 224 237 238 231 208 193 197 202 202 209 217 223 229 234 263 290 299 309 316 321 319 327 312 300 296
298 291 291 284 280 283 267 269 264 262 247 256 260 270 271 274 270 282 241 228 232 225 216 209 202 208 218 230 235 215 224 235 262 282 305 311 316 317 319 312 322 320 304
298 293 291 281 282 278 278 267 263 255 239 250 267 265 273 282 274 274 267 231 226 218 216 217 202 206 223 229 228 229 234 240 256 279 305 312 314 320 309 301 325 326 309
300 296 295 282 278 276 271 264 249 238 250 256 253 260 268 252 261 261 262 249 226 212 211 218 210 207 226 233 236 232 238 240 252 287 304 304 312 310 300 304 326 316 293
303 299 297 289 282 275 274 271 258 255 258 246 240 233 230 212 189 253 261 259 233 220 211 216 215 219 231 234 228 224 231 240 265 289 289 302 306 297 293 310 322 306 286
301 295 291 287 274 271 262 261 259 244 249 245 238 229 224 244 247 196 210 197 244 227 213 215 220 227 231 237 242 248 251 266 269 273 286 292 296 285 301 314 311 291 206
310 298 287 285 282 260 263 257 251 249 247 247 241 236 225 239 241 219 234 195 199 209 211 212 221 229 235 236 237 235 235 238 249 259 268 280 280 284 295 312 287 267 237
324 322 314 287 277 278 248 253 245 248 253 252 246 236 233 228 229 224 225 210 214 210 199 198 196 202 203 204 209 217 225 234 245 259 269 276 272 286 294 303 284 247 214
338 338 327 311 282 264 244 239 242 231 234 238 235 222 221 199 210 223 218 214 193 193 196 202 205 192 194 201 209 219 227 248 253 265 268 270 280 289 295 294 279 249 244
352 346 336 316 302 276 244 231 233 236 223 218 226 219 203 198 200 218 221 221 198 179 186 196 201 201 207 219 230 250 260 263 248 280 262 267 276 285 293 271 266 262 245
360 346 343 347 321 294 254 230 228 226 219 218 214 224 214 199 182 200 216 223 204 182 172 192 207 217 217 226 224 261 231 238 265 275 273 275 280 281 293 269 255 265 269
17 5 9 13 16 359 339 203 207 205 202 205 205 199 194 200 193 177 186 205 213 197 185 176 188 201 198 189 199 213 228 255 265 274 273 271 275 290 286 267 264 237 169
32 24 24 30 50 60 66 124 157 184 184 188 196 206 200 184 186 189 182 184 199 215 214 205 201 203 205 213 215 223 251 254 257 263 274 275 289 293 276 260 179 168 173
42 40 36 40 37 48 63 78 110 138 175 171 184 185 201 195 179 189 191 184 193 202 217 225 223 227 230 236 247 258 264 249 252 257 267 277 286 272 241 268 186 189 172
48 50 56 54 61 60 55 67 92 105 138 163 167 177 184 192 193 188 195 197 200 200 206 216 229 236 242 251 260 257 247 246 254 257 265 259 260 237 229 226 183 186 175
Height
1439 1439 1440 1440 1440 1440 1439 1437 1434 1429 1424 1420 1418 1419 1421 1422 1420 1419 1420 1420 1420 1425 1430 1432 1434 1436 1438 1441 1444 1452 1456 1456 1458 1461 1462 1461 1462 1462 1463 1464 1465 1465 1464
1433 1433 1433 1432 1433 1433 1433 1431 1429 1424 1420 1417 1414 1411 1412 1413 1416 1415 1412 1412 1417 1417 1420 1418 1415 1423 1440 1445 1443 1446 1445 1446 1451 1455 1456 1458 1456 1456 1457 1459 1460 1459 1458
1428 1427 1426 1426 1424 1424 1423 1423 1422 1420 1416 1414 1411 1407 1402 1401 1403 1403 1403 1404 1401 1403 1406 1408 1409 1420 1436 1428 1437 1444 1441 1441 1444 1446 1450 1449 1447 1448 1448 1452 1455 1452 1450
1422 1420 1418 1416 1414 1414 1414 1414 1414 1413 1410 1406 1405 1403 1399 1396 1393 1392 1391 1389 1388 1392 1397 1402 1402 1407 1421 1426 1432 1433 1435 1434 1438 1440 1442 1440 1439 1439 1442 1446 1448 1446 1444
1415 1413 1411 1409 1407 1404 1404 1404 1404 1404 1402 1399 1397 1395 1393 1390 1386 1381 1376 1372 1369 1378 1380 1399 1391 1397 1407 1419 1427 1427 1429 1431 1432 1435 1434 1432 1434 1437 1439 1441 1441 1439 1439
1408 1405 1402 1400 1398 1396 1395 1395 1393 1394 1394 1392 1389 1388 1386 1383 1380 1373 1365 1354 1325 1348 1368 1383 1384 1393 1402 1410 1418 1420 1422 1425 1425 1427 1426 1428 1429 1432 1433 1432 1434 1434 1431
1399 1396 1393 1391 1389 1387 1386 1385 1385 1384 1384 1383 1380 1381 1379 1377 1373 1368 1359 1354 1344 1345 1355 1361 1375 1388 1396 1402 1408 1412 1417 1418 1418 1419 1419 1423 1425 1427 1428 1428 1430 1430 1428
1389 1386 1384 1381 1378 1376 1374 1374 1374 1374 1373 1374 1372 1371 1370 1369 1368 1364 1362 1358 1356 1352 1356 1367 1373 1382 1390 1396 1402 1407 1410 1411 1411 1412 1417 1421 1420 1423 1425 1426 1425 1424 1423
1378 1375 1373 1370 1367 1365 1362 1362 1362 1363 1362 1362 1362 1362 1363 1362 1363 1365 1362 1361 1363 1365 1369 1372 1375 1381 1386 1390 1394 1402 1404 1407 1408 1411 1413 1415 1419 1421 1421 1422 1422 1420 1416
1367 1362 1358 1356 1354 1352 1349 1349 1350 1350 1350 1351 1352 1352 1356 1356 1355 1357 1360 1359 1365 1364 1368 1372 1374 1379 1384 1388 1393 1400 1400 1404 1403 1406 1410 1412 1416 1418 1419 1418 1417 1414 1413
1351 1346 1343 1341 1339 1337 1335 1336 1337 1338 1339 1340 1341 1342 1347 1350 1349 1349 1352 1357 1360 1363 1367 1372 1373 1376 1378 1385 1393 1395 1397 1399 1403 1404 1407 1409 1413 1414 1413 1412 1411 1410 1409
1338 1334 1330 1328 1327 1325 1325 1324 1325 1327 1328 1330 1331 1334 1338 1340 1342 1341 1348 1351 1355 1361 1364 1366 1369 1373 1379 1384 1390 1391 1394 1397 1400 1402 1404 1407 1408 1409 1408 1407 1406 1406 1404
1327 1323 1320 1318 1316 1315 1314 1313 1317 1319 1320 1322 1323 1325 1329 1333 1335 1334 1336 1342 1349 1355 1359 1361 1367 1371 1377 1385 1387 1389 1391 1394 1397 1399 1401 1402 1403 1403 1403 1403 1402 1400 1396
1317 1313 1309 1308 1307 1306 1306 1306 1308 1311 1313 1317 1317 1320 1323 1327 1329 1329 1330 1336 1342 1347 1353 1359 1362 1370 1378 1382 1384 1387 1390 1393 1395 1396 1397 1398 1398 1399 1399 1399 1397 1394 1390
1309 1304 1301 1299 1298 1297 1297 1298 1300 1303 1307 1311 1313 1317 1319 1322 1324 1325 1326 1331 1335 1340 1347 1353 1360 1367 1373 1376 1379 1384 1388 1391 1392 1393 1393 1394 1394 1395 1394 1395 1393 1390 1388
1300 1296 1293 1291 1289 1289 1290 1290 1293 1297 1301 1305 1309 1312 1315 1317 1319 1320 1324 1327 1330 1336 1342 1349 1356 1361 1367 1373 1377 1381 1385 1388 1389 1390 1390 1391 1390 1390 1391 1391 1389 1387 1387
1293 1288 1286 1284 1282 1282 1283 1285 1286 1291 1295 1299 1302 1307 1311 1312 1316 1321 1324 1324 1327 1334 1338 1344 1350 1356 1363 1369 1374 1379 1382 1384 1386 1386 1386 1388 1388 1388 1388 1386 1385 1385 1385
1283 1279 1277 1274 1274 1275 1276 1278 1280 1283 1287 1291 1295 1299 1305 1308 1314 1320 1323 1323 1326 1330 1334 1339 1346 1352 1359 1365 1370 1375 1379 1381 1382 1383 1384 1385 1385 1385 1384 1383 1382 1382 1383
1276 1272 1268 1266 1265 1266 1269 1271 1274 1277 1281 1285 1289 1293 1296 1302 1308 1314 1319 1323 1324 1330 1334 1339 1345 1351 1356 1362 1367 1372 1375 1376 1378 1378 1380 1380 1381 1381 1381 1380 1378 1378 1379
1272 1268 1264 1260 1258 1259 1261 1264 1267 1271 1275 1280 1285 1290 1293 1296 1300 1307 1313 1319 1324 1328 1334 1340 1343 1349 1354 1359 1364 1368 1370 1372 1372 1373 1375 1376 1377 1377 1375 1373 1373 1373 1374
1270 1266 1261 1256 1253 1253 1256 1259 1262 1265 1270 1275 1280 1286 1290 1294 1298 1304 1310 1315 1320 1325 1332 1337 1342 1348 1353 1358 1362 1364 1366 1367 1368 1369 1370 1371 1372 1371 1370 1370 1370 1370 1370
1269 1265 1259 1254 1250 1250 1252 1255 1259 1263 1267 1272 1277 1282 1287 1292 1297 1301 1307 1312 1320 1325 1329 1336 1340 1346 1350 1354 1357 1358 1359 1361 1364 1365 1366 1367 1366 1366 1365 1366 1366 1366 1366
1271 1266 1261 1254 1250 1251 1253 1255 1258 1261 1265 1269 1275 1279 1284 1289 1294 1299 1303 1309 1316 1322 1328 1332 1337 1342 1346 1349 1352 1355 1356 1359 1360 1361 1362 1362 1362 1362 1362 1360 1359 1361 1361
1273 1269 1265 1260 1256 1254 1255 1256 1259 1262 1265 1270 1274 1279 1283 1288 1293 1298 1303 1307 1313 1320 1325 1328 1332 1337 1340 1344 1349 1352 1355 1356 1357 1358 1357 1358 1358 1357 1357 1357 1358 1356 1363
1276 1273 1269 1266 1264 1261 1260 1260 1261 1264 1267 1271 1274 1278 1283 1286 1290 1294 1299 1304 1310 1315 1318 1323 1327 1332 1337 1342 1346 1347 1350 1352 1354 1355 1355 1356 1356 1356 1357 1358 1357 1363 1366
1279 1276 1273 1271 1269 1268 1267 1267 1268 1269 1271 1273 1276 1278 1282 1286 1290 1294 1298 1302 1307 1311 1315 1318 1322 1328 1333 1336 1341 1341 1344 1347 1349 1351 1353 1354 1354 1355 1357 1358 1360 1362 1367